User: anonymous   Login
Location: *
(40.4270°N, 9.4940°E)
Time: 20:36:01
(UTC+02:00)
Language:

Okean 2 - Orbit

View from above orbital plane
View from above orbital plane
View from above satellite
View from above satellite

Ground track
Ground track

The orbit data is extracted from the following two-line orbital elements,

1 20510U 90018A   16238.21345367  .00000270  00000-0  20217-4 0  9992
2 20510  82.5144  95.5977 0010815 261.0670 238.2071 14.98630342437112
Epoch (UTC): 25 August 2016 05:07:22
Eccentricity: 0.0010815
inclination: 82.5144°
perigee height: 563 km
apogee height: 578 km
right ascension of ascending node: 95.5977°
argument of perigee: 261.0670°
revolutions per day: 14.98630342
mean anomaly at epoch: 238.2071°
orbit number at epoch: 43711

The dashed part of the orbit path shows where the satellite is in the earth's shadow,  

DLR